Погода в Струнино

Россия / Владимирская область     56°22′29″N   38°35′02″E
темп.,
°C
ветер,
м/с
пор.,
м/с
влажн.,
%
обл.,
%
осадки,
мм/ч
давл.,
гПа
погр.,
м
7 марта, вс
вс700:00−12юз36920 0.0 1011127
03:00−11ююз4119124 0.0 1008335
06:00−8ююз61492100 0.3 1003788
09:00−6юз71392100 1.8 998995
12:00−3юз71392100 1.6 9941111
15:00−3сз51079100 3.8 992983
18:00−5зсз1286100 0.2 99228
21:00−9з2386100 0.2 99329
8 марта, пн
пн800:00−7зсз4994100 0.8 994748
03:00−10зюз3109496 0.9 995295
06:00−9зюз5119382 0.3 994873
09:00−8з598991 0.9 995852
12:00−6сз4680100 0.3 998990
15:00−7сз588299 0.4 10011026
18:00−9ссз4108797 0.1 1004720
21:00−12ссз3119275 0.1 1007477
9 марта, вт
вт900:00−15ссз399579 0.0 1010321
03:00−17ссз389686 0.1 1012253
06:00−19ссз389792 0.0 1014256
09:00−19ссз379389 0.0 1016324
12:00−15сз368570 0.0 1017488
15:00−14сз478277 0.0 1018660
18:00−17ссз389196 0.0 1018321
21:00−21ссз399554 0.0 1021214
10 марта, ср
ср1000:00−24ссз25970 0.0 1022112
03:00−25ссз24970 0.0 102485
06:00−26ссз23970 0.0 102573
09:00−22с24900 0.0 1026211
12:00−15ссв12710 0.0 1027476
15:00−13ссв12680 0.0 1026721
18:00−17в00823 0.0 102620
21:00−20зюз018918 0.0 102720
11 марта, чт
чт1100:00−20ююз129071 0.0 102620
03:00−21ю129176 0.0 102620
06:00−22юв239272 0.0 102537
09:00−18юв378365 0.0 1024240
12:00−13юв499069 0.1 1022443
15:00−10ююв489084 0.6 1019618
18:00−11юв4894100 0.2 1017373
21:00−9ююв4995100 0.7 1016326